User: anonymous   Login
Location: Unspecified
(0.0000°N, 0.0000°E)
Time: 00:15:44
(UTC+00:00)
Language:

Kosmos-2239 - Orbit

View from above orbital plane
View from above orbital plane
View from above satellite
View from above satellite

Ground track
Ground track

The orbit data is extracted from the following two-line orbital elements,

1 22590U 93020A   17326.58159248 +.00000020 +00000-0 +50325-5 0  9995
2 22590 082.9292 303.8684 0023755 028.8427 108.6643 13.75384348236697
Epoch (UTC): 22 November 2017 13:57:29
Eccentricity: 0.0023755
inclination: 82.9292°
perigee height: 963 km
apogee height: 998 km
right ascension of ascending node: 303.8684°
argument of perigee: 28.8427°
revolutions per day: 13.75384348
mean anomaly at epoch: 108.6643°
orbit number at epoch: 23669

The dashed part of the orbit path shows where the satellite is in the earth's shadow,  

DLR